Regional Weather Roundup
Issued by NWS Kansas City/Pleasant Hill, MO

Home | Current Version | Previous Version | Graphics & Text | Print | Product List | Glossary Off
Versions: 1 2 3 4 5 6 7 8 9 10 11 12 13 14 15 16 17 18 19 20 21 22 23 24 25 26 27 28 29 30 31 32 33 34 35 36 37 38 39 40 41 42 43 44 45 46 47 48 49 50

000
ASUS43 KEAX 191910
RWREAX

WEATHER ROUNDUP FOR EASTERN KANSAS AND NORTHWEST MISSOURI
NATIONAL WEATHER SERVICE KANSAS CITY/PLEASANT HILL MO
100 PM CST FRI JAN 19 2018

KSZ040-057-103>105-MOZ028-029-037-043-192000-
...KANSAS CITY METROPOLITAN AREA...

CITY           SKY/WX    TMP DP  RH WIND       PRES   REMARKS
K.C. INTL      CLOUDY    46  24  42 S14       29.85F
K.C. DOWNTOWN  CLOUDY    48  24  39 S13       29.87F
LEES SUMMIT    CLOUDY    46  25  43 S18       29.88F
OLATHE - IXD   CLOUDY    47  26  44 S14       29.89F
OLATHE - OJC   CLOUDY    43  25  49 S14       29.89F
LAWRENCE       CLOUDY    44  26  49 S12       29.88F

$$

MOZ001>008-011>017-020>025-030>033-038>040-044>046-053-054-192000-
...NORTHERN AND CENTRAL MISSOURI...

CITY           SKY/WX    TMP DP  RH WIND       PRES   REMARKS
ST. JOSEPH     CLOUDY    44  27  51 S15       29.82F
MOSBY          CLOUDY    46  21  36 S13       29.87F
WARRENSBURG    CLOUDY    45  27  49 S15G22    29.92F
WHITEMAN AFB   PTSUNNY   48  24  40 SW21G29   29.87F
CLINTON        CLOUDY    48  25  40 SW14      29.95F
SEDALIA        CLOUDY    50  27  40 SW21G32   29.93F
WARSAW         NOT AVBL
CHILLICOTHE      N/A     44  24  45 S16G24    29.85F
KIRKSVILLE     CLOUDY    43  27  53 S15       29.84F

$$

MOZ041-047>049-056>058-063>065-088>090-097-192000-
...EASTERN AND SOUTHERN MISSOURI...

CITY           SKY/WX    TMP DP  RH WIND       PRES   REMARKS
ST. LOUIS INTL CLOUDY    54  19  25 S17       29.97F
SPIRIT OF STL  CLOUDY    54  20  26 SW14G24   29.96F
COLUMBIA       CLOUDY    51  22  31 S17G26    29.94F
JEFFERSON CITY CLOUDY    52  23  32 S12G17    29.96F
ROLLA          SUNNY     51  22  31 SW20G29   29.99F
OSAGE BEACH    CLOUDY    51  25  36 SW15      29.98F
SPRINGFIELD    SUNNY     50  28  42 S16       29.99F
BRANSON        MOSUNNY   54  27  35 S9G17     30.03F
JOPLIN         CLOUDY    49  26  41 S21G28    29.98F
WEST PLAINS    SUNNY     49  23  36 S10       30.06F

$$

IAZ060-094-KSZ022-034>040-054-083-096-NEZ052-066-093-192000-
...KANSAS...SOUTHEAST NEBRASKA AND IOWA...

CITY           SKY/WX    TMP DP  RH WIND       PRES   REMARKS
TOPEKA         CLOUDY    43  25  49 S12       29.86F
MANHATTAN      CLOUDY    50  24  36 S9        29.80F
EMPORIA        CLOUDY    51  24  34 S15       29.86F
CHANUTE        CLOUDY    48  24  39 S20G25    29.92F
WICHITA        CLOUDY    53  21  28 S23       29.85F
OMAHA          CLOUDY    45  28  51 S13       29.69F
LINCOLN        CLOUDY    51  25  36 SW13      29.70F
FALLS CITY     CLOUDY    47  27  45 S16       29.77F
LAMONI         CLOUDY    44  24  45 S18       29.75F
DES MOINES     CLOUDY    44  26  49 SW14      29.71F

$$




USA.gov is the U.S. government's official web portal to all federal, state and local government web resources and services.